Location: Hurstbourne Priors
(51.2000°N, 1.3667°W)
Time: 20:25:26
(UTC+00:00)

Transit 4A - Pass Details

Date: 26 April 2021
Orbit: 870 x 974 km, 66.8° (Epoch: 09 May)

Event Time Altitude Azimuth Distance (km) Brightness Sun altitude
Rises 03:40:32 0° 312° (NW) 3,556 10.8 -9.9°
Reaches altitude 10° 03:43:47 10° 328° (NNW) 2,594 10.3 -9.5°
Maximum altitude 03:48:10 20° 16° (NNE) 1,926 10.3 -9.0°
Drops below altitude 10° 03:52:29 10° 63° (ENE) 2,547 11.9 -8.4°
Sets 03:55:39 0° 80° (E) 3,473 12.3 -8.0°
